Regional Weather Roundup
Issued by NWS Grand Forks, ND

Home | Current Version | Previous Version | Text Only | Print | Product List | Glossary Off
Versions: 1 2 3 4 5 6 7 8 9 10 11 12 13 14 15 16 17 18 19 20 21 22 23 24 25 26 27 28 29 30 31 32 33 34 35 36 37 38 39 40 41 42 43 44 45 46 47 48 49 50

000
ASUS43 KFGF 200910
RWRFGF
PRAIRIE TO PINES  WEATHER ROUNDUP
NATIONAL WEATHER SERVICE EASTERN NORTH DAKOTA/GRAND FORKS ND
400 AM CDT SUN APR 20 2014

 **SATELLITE DATA USED TO AUGMENT SKY COVER AT AUTOMATED STATIONS**
 *****  WEATHER ACROSS EASTERN NORTH DAKOTA  *****

CITY           SKY/WX    TMP DP  RH WIND       PRES   REMARKS
GRAND FORKS    CLEAR     29  27  92 SW5       30.01R WCI  24
GRAND FRKS AFB CLEAR     30  29  99 W3        30.01R
GRAND FRKS NWS   N/A     34 N/A N/A SW5         N/A
DEVILS LAKE    CLEAR     30  27  86 S3        29.98S
FARGO          CLEAR     35  32  88 S3        30.02S
WAHPETON ARPT  SUNNY     37  32  81 NE3       30.03S
$$

 ***** WEATHER ACROSS CENTRAL AND WESTERN NORTH DAKOTA  *****

CITY           SKY/WX    TMP DP  RH WIND       PRES   REMARKS
BISMARCK       CLEAR     34  32  92 NE7       29.99S
MINOT          CLEAR     34  29  82 SE5       29.94S
JAMESTOWN      CLEAR     30  28  92 S6        30.00S WCI  24
MINOT AFB      CLEAR     33  33  97 S8        29.93S
GARRISON         N/A     34  30  85 E5        29.95S
WILLISTON      CLEAR     29  26  89 CALM      29.90F
DICKINSON      CLEAR     34  23  64 S9        29.91F
HETTINGER      CLEAR     29  23  78 CALM      29.95F
$$

 *****  OTHER AIRPORT OBSERVATIONS IN OUR AREA  *****

CITY           SKY/WX    TMP DP  RH WIND       PRES   REMARKS
WALHALLA       FAIR      30  30 100 SW6       30.01R WCI  24
GRAFTON AIRPOR FAIR      30  30 100 NW5       30.00S
VALLEY CITY AR FAIR      32  32 100 S5        30.01S
CANDO          FAIR      27  27 100 NE8       29.99R WCI  18
CAVALIER APRT  FAIR      30  28  93 CALM      30.01R
GWINNER        SUNNY     39  39 100 SE5       30.04S
SHEYENNE NWR     N/A     32  32  99 CALM      29.95S
ROLLA          FAIR      28  28 100 NW3       29.99F
 ***** THE ABOVE OBSERVATIONS ARE NON NWS ARE NOT QUALITY
       CONTROLLED AND MAY MIS-REPORT RAIN FOR SNOW...
$$

  *****  WEATHER ACROSS NORTHERN MINNESOTA  *****

CITY           SKY/WX    TMP DP  RH WIND       PRES   REMARKS
FLAG ISLAND    CLEAR     32  28  86 SW6       29.98S
WARROAD        CLEAR     32  28  86 SW3       30.00S
ROSEAU         CLEAR     30  27  86 CALM      30.00S
HALLOCK        CLOUDY    32  30  93 CALM      30.00R
THF RVR FALLS  CLEAR     34  30  86 CALM      30.02S
BAUDETTE       CLEAR     33  31  92 S5        30.01R
WASKISH        CLEAR     30  28  93 CALM      30.01F FOG
CROOKSTON      CLEAR     36  34  93 SE5       30.01F
$$
  *****  WEATHER ACROSS CENTRAL AND WEST MINNESOTA  *****

CITY           SKY/WX    TMP DP  RH WIND       PRES   REMARKS
FOSSTON        CLEAR     30  25  80 CALM      30.02F
BEMIDJI        CLEAR     31  29  90 CALM      30.02S
PARK RAPIDS    CLEAR     36  33  89 CALM      30.03R
ELBOW LAKE     FAIR      44  37  76 NE8       30.02S
WADENA         CLEAR     32  28  86 CALM      30.03S
DETROIT LAKES  CLEAR     37  36  93 CALM      30.03S
MOORHEAD       NOT AVBL
FERGUS FALLS   CLEAR     43  34  70 E8        30.00F
MORRIS MN      CLEAR     37  32  81 NE12      30.01S
STAPLES        CLEAR     37  34  87 CALM      30.03S
$$
  *****  WEATHER ELSEWHERE ACROSS MINNESOTA  *****

CITY           SKY/WX    TMP DP  RH WIND       PRES   REMARKS
DULUTH         CLEAR     35  33  92 CALM      30.01R
INTRNTL FALLS  CLEAR     36  31  82 W5        30.00R
ELY            CLEAR     30  28  93 W3        30.00R
CLOQUET        CLEAR     30  28  93 W5        30.01S FOG
WHEATON        CLEAR     43  37  81 CALM      30.05R
BRAINERD       CLEAR     39  30  70 S3        30.04R
HIBBING        CLEAR     29  25  85 CALM      30.01R
ALEXANDRIA     CLEAR     43  35  73 NE7       30.04R
SAINT CLOUD    MOCLDY    34  32  93 CALM      30.01S FOG
MINNEAPOLIS    CLOUDY    49  49 100 CALM      30.02R
$$

  *****  WEATHER ACROSS SOUTH DAKOTA  *****

CITY           SKY/WX    TMP DP  RH WIND       PRES   REMARKS
SIOUX FALLS    CLOUDY    52  39  61 NE5       30.00R
BROOKINGS      NOT AVBL
WATERTOWN      PTCLDY    37  29  72 NE5       30.02R
HURON          CLEAR     37  31  78 CALM      30.00R
SISSETON         N/A     40  35  83 NW5       30.03S
ABERDEEN       CLEAR     36  31  82 NE7       30.01S
MITCHELL       CLEAR     39  28  64 CALM      30.02R
PIERRE         CLEAR     40  26  57 NE5       29.97F
MOBRIDGE       CLEAR     38  29  70 SE6       29.96S
RAPID CITY     CLEAR     42  29  59 S7        29.94F
$$

  *****  SOME WEATHER IN NEARBY STATES *****

CITY           SKY/WX    TMP DP  RH WIND       PRES   REMARKS
GLASGOW MT     MOCLDY    39  30  70 E13       29.82F
GREAT FALLS MT CLOUDY    48  30  49 W22       29.90R
CHEYENNE WY    PTCLDY    44  37  76 W9        30.05F
SCOTTSBLUFF NE PTCLDY    46  35  65 E8        29.99F
OMAHA NE       MOCLDY    64  45  49 S14       29.98F
DES MOINES IA  CLOUDY    61  44  53 S8        30.06S
DAVENPORT IA   PTCLDY    56  39  53 S12       30.15F
CHICAGO IL     PTCLDY    47  30  51 SE9       30.21F
EAU CLAIRE WI  CLOUDY    53  45  74 W3        30.02F
LA CROSSE WI   CLOUDY    62  38  40 S12       30.05S
$$

  *****  SOME NATIONAL WEATHER *****

CITY           SKY/WX    TMP DP  RH WIND       PRES   REMARKS
LA GUARDIA NY  MOCLDY    46  36  68 NE7       30.42R
RALEIGH NC     CLOUDY    51  37  58 NE8       30.19F
ATLANTA GA     PTCLDY    52  43  71 NE15      30.16S
NEW ORLEANS LA CLEAR     61  58  90 CALM      30.12R
OKLAHOMA CITY  MOCLDY    56  49  77 SE8       30.08F
ALBUQUERQUE NM CLOUDY    48  46  93 SE7       30.12F
SALT LAKE CITY PTCLDY    53  38  56 SE8       30.00S
LOS ANGELES CA PTCLDY    60  54  80 CALM      30.04F
BOISE ID       PTCLDY    51  31  46 NW16G25   30.12R
SEATTLE WA     MOCLDY    46  42  86 S13G22    30.22R
$$

*** WEATHER ACROSS MANITOBA...SASKATCHEWAN AND ONTARIO ***
                ***ONTARIO***

CITY           SKY/WX    TMP DP  RH WIND       PRES   REMARKS
GERALDTON      CLEAR     32  30  93 S9        29.97F WCI  24
THUNDER BAY    FOG       25  25 100 SW5       30.01S VSB 1/2 WCI  19
SIOUX LOOKOUT  CLOUDY    36  34  93 S5        29.94R
TORONTO        CLEAR     37  27  65 NE5       30.40F
BIG TROUT LK   NOT AVBL
PICKLE LAKE    NOT AVBL
DRYDEN         MOCLDY    37  32  81 SW8       29.94S
KENORA         CLEAR     32  28  86 W7        29.97R
$$
                *** MANITOBA***

CITY           SKY/WX    TMP DP  RH WIND       PRES   REMARKS
BRANDON        PTCLDY    30  28  93 SW8       29.99R WCI  23
DAUPHIN        CLOUDY    34  28  80 W7        29.96R
ISLAND LAKE    FLURRIES  32  32 100 W9        29.75R WCI  24
PILOT MOUND      N/A     28  27  93 SW5         N/A  WCI  23
THE PAS        MOCLDY    25  25 100 NW8       29.90R WCI  16
THOMPSON       LGT SNOW  30  30 100 N7        29.82R WCI  23
WINNIPEG       CLEAR     32  28  86 SW8       30.00R WCI  25
LYNN LAKE      CLOUDY    27  25  93 N3        29.87S
CHURCHILL      MOCLDY    16  14  93 E12       29.95S WCI   3
GILLAM         FLURRIES  28  28 100 NE8       29.80R WCI  20
$$
                ***SASKATCHEWAN***

CITY           SKY/WX    TMP DP  RH WIND       PRES   REMARKS
ESTEVAN        CLEAR     30  30 100 E7        29.91F WCI  23
KINDERSLEY     MOCLDY    37  32  81 SE17G23   29.76F
LLOYDMINSTER   CLOUDY    36  30  80 SE9       29.78S
PRINCE ALBERT  CLEAR     25  25 100 NE5       29.89R WCI  19
REGINA         CLEAR     28  28 100 E8        29.91S WCI  20
YORKTON        CLEAR     32  28  86 W2        29.93S
N. BATTLEFORD  PTCLDY    32  30  93 SE13      29.85S WCI  22
LA RONGE       NOT AVBL
SASKATOON      PTCLDY    27  27 100 S3        29.89F
SWIFT CURRENT  MOCLDY    28  27  93 SE6       29.79F WCI  22
$$
NOTE: THESE ARE AUTOMATED STATIONS WITH LIMITED QUALITY CONTROL
      "FAIR" INDICATES FEW OR NO CLOUDS BELOW 12,000 FEET WITH NO
      SIGNIFICANT WEATHER AND/OR OBSTRUCTIONS TO VISIBILITY.
      SKY/WX - SKY CONDITION AND SIGNIFICANT WEATHER.
      TMP - AIR TEMPERATURE.    DP   - DEWPOINT TEMPERATURE.
      RH  - RELATIVE HUMIDITY.  PRES - PRESSURE.
      HX  - HEAT INDEX.         WCI  - WIND CHILL INDEX.
$



USA.gov is the U.S. government's official web portal to all federal, state and local government web resources and services.